TimePDT,TemperatureF,Dew PointF,Humidity,Sea Level PressureIn,VisibilityMPH,Wind Direction,Wind SpeedMPH,Gust SpeedMPH,PrecipitationIn,Events,Conditions,WindDirDegrees,DateUTC
12:25 AM,48.2,48.2,100,29.95,10.0,South,12.7,-,N/A,,Overcast,180,2013-04-29 07:25:00
12:40 AM,48.2,48.2,100,29.95,10.0,South,12.7,-,N/A,,Overcast,190,2013-04-29 07:40:00
12:58 AM,48.7,47.7,96,29.96,10.0,SSW,13.8,-,0.01,,Overcast,200,2013-04-29 07:58:00
1:18 AM,48.2,48.2,100,29.95,10.0,SSW,16.1,21.9,N/A,,Overcast,210,2013-04-29 08:18:00
1:38 AM,50.0,48.2,94,29.96,10.0,SSW,12.7,-,N/A,,Overcast,210,2013-04-29 08:38:00
1:58 AM,49.6,49.1,98,29.97,10.0,SW,15.0,-,N/A,,Overcast,230,2013-04-29 08:58:00
2:08 AM,50.0,48.2,94,29.96,10.0,SW,15.0,21.9,N/A,,Overcast,230,2013-04-29 09:08:00
2:10 AM,50.0,48.2,94,29.97,8.0,SW,16.1,21.9,N/A,,Overcast,230,2013-04-29 09:10:00
2:12 AM,50.0,48.2,94,29.97,6.0,SW,13.8,-,N/A,Rain,Light Rain,220,2013-04-29 09:12:00
2:24 AM,50.0,48.2,94,29.97,10.0,WSW,15.0,21.9,N/A,,Overcast,240,2013-04-29 09:24:00
2:29 AM,50.0,48.2,94,29.97,10.0,WSW,20.7,25.3,N/A,,Overcast,240,2013-04-29 09:29:00
2:34 AM,48.2,46.4,93,29.96,10.0,SW,26.5,32.2,N/A,,Mostly Cloudy,230,2013-04-29 09:34:00
2:39 AM,48.2,44.6,87,29.96,10.0,WSW,24.2,33.4,N/A,,Scattered Clouds,240,2013-04-29 09:39:00
2:58 AM,47.5,43.5,86,29.99,10.0,WSW,21.9,29.9,0.01,,Clear,240,2013-04-29 09:58:00
3:58 AM,46.6,39.9,78,30.01,10.0,SW,24.2,33.4,N/A,,Clear,230,2013-04-29 10:58:00
4:58 AM,45.3,37.2,73,30.01,10.0,SSW,18.4,25.3,N/A,,Clear,210,2013-04-29 11:58:00
5:58 AM,44.6,36.9,74,30.03,10.0,SSW,20.7,25.3,N/A,,Clear,210,2013-04-29 12:58:00
6:58 AM,44.8,36.7,73,30.06,10.0,SW,18.4,26.5,N/A,,Clear,220,2013-04-29 13:58:00
7:58 AM,46.2,37.2,71,30.06,10.0,SW,20.7,31.1,N/A,,Clear,220,2013-04-29 14:58:00
8:58 AM,48.7,36.0,61,30.09,10.0,SW,19.6,25.3,N/A,,Clear,230,2013-04-29 15:58:00
9:58 AM,50.2,36.0,58,30.11,10.0,SW,16.1,24.2,N/A,,Scattered Clouds,230,2013-04-29 16:58:00
10:58 AM,52.2,35.2,53,30.12,10.0,SW,15.0,23.0,N/A,,Clear,230,2013-04-29 17:58:00
11:58 AM,53.8,33.4,46,30.13,10.0,SW,19.6,28.8,N/A,,Clear,230,2013-04-29 18:58:00
12:58 PM,54.1,33.3,45,30.13,10.0,WSW,20.7,28.8,N/A,,Partly Cloudy,250,2013-04-29 19:58:00
1:58 PM,55.4,33.8,44,30.12,10.0,WSW,23.0,29.9,N/A,,Clear,240,2013-04-29 20:58:00
2:58 PM,54.9,33.1,44,30.14,10.0,WSW,20.7,29.9,N/A,,Clear,240,2013-04-29 21:58:00
3:58 PM,55.2,33.8,44,30.13,10.0,WSW,21.9,26.5,N/A,,Partly Cloudy,250,2013-04-29 22:58:00
4:58 PM,55.2,32.5,42,30.14,10.0,WSW,19.6,28.8,N/A,,Clear,250,2013-04-29 23:58:00
5:58 PM,53.6,30.7,42,30.14,10.0,WSW,24.2,28.8,N/A,,Clear,250,2013-04-30 00:58:00
6:58 PM,51.8,30.7,45,30.15,10.0,WSW,15.0,24.2,N/A,,Clear,240,2013-04-30 01:58:00
7:58 PM,48.4,31.5,52,30.15,10.0,SW,17.3,24.2,N/A,,Clear,230,2013-04-30 02:58:00
8:58 PM,45.7,31.8,58,30.17,10.0,SW,13.8,17.3,N/A,,Clear,230,2013-04-30 03:58:00
9:58 PM,42.4,32.7,68,30.19,10.0,South,10.4,-,N/A,,Clear,180,2013-04-30 04:58:00
10:58 PM,42.1,33.3,71,30.19,10.0,South,10.4,-,N/A,,Partly Cloudy,190,2013-04-30 05:58:00
11:58 PM,39.7,32.9,77,30.18,10.0,South,11.5,-,N/A,,Clear,190,2013-04-30 06:58:00